Regional Weather Roundup
Issued by NWS Newport/Morehead, NC

Current Version | Previous Version | Graphics & Text | Print | Product List | Glossary Off
Versions: 1 2 3 4 5 6 7 8 9 10 11 12 13 14 15 16 17 18 19 20 21 22 23 24 25 26 27 28 29 30 31 32 33 34 35 36 37 38 39 40 41 42 43 44 45 46 47 48 49 50

000
ASUS42 KMHX 041025
RWRMHX
WEATHER ROUNDUP FOR EASTERN NORTH CAROLINA
NATIONAL WEATHER SERVICE NEWPORT/MOREHEAD CITY NC
600 AM EDT MON MAY 04 2015

NOTE: "FAIR" INDICATES FEW OR NO CLOUDS BELOW 12,000 FEET
WITH NO SIGNIFICANT WEATHER AND/OR OBSTRUCTIONS TO VISIBILITY

NCZ015>017-031-032-045>047-102-103-041100-
NORTH COAST

CITY           SKY/WX    TMP DP  RH WIND       PRES   REMARKS
EDENTON        PTCLDY    52  50  92 CALM      30.27R
ELIZABETH CITY CLEAR     55  49  80 W5        30.26R
KITTY HAWK     SUNNY     60  53  77 W5        30.25R
MANTEO         CLEAR     60  53  76 W5        30.27R

$$

NCZ045>047-081-094-103-104-041100-
CENTRAL COAST

CITY           SKY/WX    TMP DP  RH WIND       PRES   REMARKS
FRISCO         CLEAR     55  55 100 W5        30.26R
SWANQUARTER      N/A     57 N/A N/A NE1       30.24R

$$

NCZ095-097-098-100-101-041100-
SOUTHERN COAST

CITY           SKY/WX    TMP DP  RH WIND       PRES   REMARKS
BEAUFORT       CLEAR     54  54 100 CALM      30.27R
CEDAR ISLAND     N/A     59 N/A N/A SW3       30.30S
JACKSONVILLE   CLEAR     50  48  93 CALM      30.26R
PINEY ISLAND   SUNNY    N/A N/A N/A SW5       30.26R
WILMINGTON     CLEAR     52  50  93 CALM      30.26R


$$

NCZ011>013-027>030-043-044-078>080-089-090>093-098-041100-
COASTAL PLAIN

CITY           SKY/WX    TMP DP  RH WIND       PRES   REMARKS
AHOSKIE        CLOUDY    52  47  84 CALM      30.27R
CLINTON        CLEAR     51  50  98 CALM      30.27R
ELIZABETHTOWN  CLEAR     52  51  98 CALM      30.27R
GOLDSBORO      PTCLDY    51  49  93 CALM      30.24R
GREENVILLE     PTCLDY    52  52 100 CALM      30.27R
HAVELOCK       CLEAR     51  47  86 CALM      30.27R
KENANSVILLE    CLEAR     47  46  97 CALM      30.28R
KINSTON        CLEAR     50  49  97 CALM      30.27R
NEW BERN       CLEAR     51  48  89 CALM      30.27R
RICHLANDS      CLEAR     46  43  87 CALM      30.28R
ROCKY MOUNT    MOCLDY    53  50  89 CALM      30.26R
WASHINGTON       N/A     53  50  89 CALM      30.27R
WHITEVILLE     CLEAR     51  49  93 CALM      30.25R

$$

AMZ130-135-150-152-154-156-158-170-250-252-270-ANZ085-086-088-633-658-670-041100-
MARINE OBSERVATIONS

STATION/POSITION TIME  TEMP    WIND        PRES    WAVE   SWELL
                       AIR SEA DIR/SP/G            HT/PER HT/PER
                 (UTC) (F)     (DEG/KT/KT) (MB)    (FT/S) (FT/S)
CHESAPEAKE LIGHT 1000   60     250/ 13/ 13 1024.9
64 E VA BEACH    0950   60 60  250/  8/ 10 1023.9    4/ 9   5/ 9
DUCK             1000   62 55  250/  5/  6 1023.6
2 E DUCK         0911      57                N/A     3/11   2/11
OREGON INLET     1000   61 62  260/  3/  4 1024.6
13E OREGON INLT  1000      54                N/A     4/11   3/11
HATTERAS CG      1000   63 62  220/  2/  4 1024.5
DIAMOND BUOY     0950   64     300/  6/ 10 1024.7    4/11   3/11
CAPE LOOKOUT     1000   65     300/  2/  3 1024.6
BEAUFORT LAB     1000   61 65   CALM  /  2 1024.0
27 SE WRIGHTSVLE 1000   68 71  280/  2/  4   N/A
5 SE WRIGHTSVLE  NOT AVBL
225 S CAPE HAT   0950   67 69   60/  8/ 10 1025.1    5/11   5/11
41 SE CHARLESTON 0950   72 73  160/  4/  6 1023.9    3/11   3/11

$$


USA.gov is the U.S. government's official web portal to all federal, state and local government web resources and services.